Regional Weather Roundup
Issued by NWS

Home | Current Version | Previous Version | Graphics & Text | Print | Product List | Glossary On
Versions: 1 2 3 4 5 6 7 8 9 10 11 12 13 14 15 16 17 18 19 20 21 22 23 24 25 26 27 28 29 30 31 32 33 34 35 36 37 38 39 40 41 42 43 44 45 46 47 48 49 50
000
ASUS45 KSLC 272110
RWRUT

UTAH REGIONAL WEATHER ROUNDUP
NATIONAL WEATHER SERVICE SALT LAKE CITY UT
300 PM MDT SUN JUL 27 2014

UTZ001>011-023>025-272200-

NORTHERN UTAH

CITY           SKY/WX    TMP DP  RH WIND       PRES   REMARKS
HILL AFB       MOSUNNY   94  36  13 N1        30.18F HX  90
LOGAN          SUNNY     94  34  12 CALM      30.17F
OGDEN          SUNNY     95  38  13 NW10      30.15F HX  90
PROVO AIRPORT  NOT AVBL
SALT LAKE CITY PTSUNNY   97  38  13 NE5       30.12F HX  92
VERNAL         MOSUNNY   89  43  20 S7        30.25F
WENDOVER       PTSUNNY   93  36  13 NE5       30.14F
HEBER CITY     PTSUNNY   90  34  13 E9        30.24F
WEST JORDAN    SUNNY     97  54  23 CALM      30.17F HX  94

$$

UTZ012>022-026-027-272200-

SOUTHERN UTAH

CITY           SKY/WX    TMP DP  RH WIND       PRES   REMARKS
BRYCE CANYON   MOSUNNY   84  40  21 S13G18    30.39F
CEDAR CITY     MOSUNNY   90  40  17 W6        30.21F
MILFORD        SUNNY     95  42  16 SW10      30.15F HX  91
MOAB/CYNLANDS  SUNNY     97  44  16 NE7       30.11F HX  93
PRICE          MOSUNNY   90  40  17 S5        30.27F
ST GEORGE      MOCLDY    97  55  24 SW15      30.03F HX  95

$$

REGIONAL REPORTS     COLORADO/ARIZONA

CITY           SKY/WX    TMP DP  RH WIND       PRES   REMARKS
CRAIG, CO      MOSUNNY   78  44  29 SW9G18    30.35F
GRAND JUNCTION MOSUNNY   95  46  18 W12       30.15F HX  91
RIFLE          MOSUNNY   87  43  21 NW3       30.24F
MONTROSE       PTSUNNY   83  51  33 SW14      30.27R
CORTEZ         SUNNY     91  40  16 VRB7      30.24F
PAGE, AZ       SUNNY     99  45  15 E7        30.12F HX  95
GRAND CANYON   LGT RAIN  73  56  54 S8        30.37S
KINGMAN        MOSUNNY   93  53  25 W12G18    30.11F HX  90
FLAGSTAFF      MOSUNNY   80  42  25 MISG      30.36F

$$

REGIONAL REPORTS    NEVADA/IDAHO/WYOMING

CITY           SKY/WX    TMP DP  RH WIND       PRES   REMARKS
LAS VEGAS, NV  MOSUNNY  102  56  21 S16G28    29.92F HX 101
ELY            PTSUNNY   88  37  16 VRB3      30.26F
ELKO           PTSUNNY   94  30  10 NW5       30.18F
POCATELLO, ID  SUNNY     95  27   9 N8        30.19F
BURLEY         MOSUNNY   95  35  12 NE8       30.13F HX  90
EVANSTON, WY   PTSUNNY   87  26  11 MISG      30.40F
ROCK SPRINGS   SUNNY     85  30  13 VRB5      30.39F

$$


USA.gov is the U.S. government's official web portal to all federal, state and local government web resources and services.